{"data":{"norad_id":53244,"intl_designator":"2022-086C","name":"STARLINK-4125","alt_names":[],"object_type":"PAYLOAD","status":"ACTIVE","operator":null,"country":"US","launch_date":"2022-07-24","launch_site_code":"AFETR","launch_vehicle":null,"mission":null,"orbit_class":"UNKNOWN","rcs_meters":null,"size_class":null,"mass_kg":null,"dimensions":null,"purposes":["comms"],"wikipedia_slug":null,"has_3d_model":false,"image_url":null,"decayed_at":null,"tle_current":{"epoch":"2026-05-25T05:00:26.233344Z","epoch_age_seconds":63918,"freshness":"FRESH","line1":"1 53244U 22086C   26145.20863696  .00000160  00000+0  28185-4 0  9998","line2":"2 53244  53.2124 220.6923 0001849  82.8820 277.2382 15.08841101212792","mean_motion":15.08841101,"eccentricity":0.0001849,"inclination_deg":53.2124,"raan_deg":220.6923,"arg_perigee_deg":82.882,"mean_anomaly_deg":277.2382,"bstar":2.8185e-5,"rev_number":21279,"period_min":95.437485037068,"perigee_km":538.46090818794,"apogee_km":541.01913911128,"semimajor_km":6917.8770236496,"source":"CELESTRAK","updated_at":"2026-05-25T13:38:17.359994Z"}}}